Flag for USA

Past Weather in 59°13'45.1"N, 135°26'14.3"W, USA — Yesterday and Last 2 Weeks

Currently: 48 °F. Overcast. (Weather station: Haines Airport, USA). See more current weather

Past Weather in 59°13'45.1"N, 135°26'14.3"W — Graph

°F

59°13'45.1"N, 135°26'14.3"W Temperature Yesterday

Maximum temperature yesterday: 56 °F (at 12:54 pm)
Minimum temperature yesterday: 47 °F (at 5:54 am)
Average temperature yesterday: 51 °F

High & Low Weather Summary for the Past Weeks

 TemperatureHumidityPressure
High61 °F (May 21, 3:54 pm)93% (May 15, 4:54 am)30.29 "Hg (May 15, 4:54 am)
Low36 °F (May 11, 4:54 am)43% (May 16, 10:54 am)29.74 "Hg (May 25, 3:54 am)
Average49 °F71%29.98 "Hg
* Reported May 10 3:54 am — May 25 3:54 am, 59°13'45.1"N, 135°26'14.3"W. Weather by CustomWeather, © 2024

Note: Actual official high and low records may vary slightly from our data, if they occured in-between our weather recording intervals... More about our weather records

59°13'45.1"N, 135°26'14.3"W Weather History for the Previous 24 Hours

Scroll right to see more
 ConditionsComfort  
Time TempWeatherWind HumidityBarometerVisibility
3:54 am
Sat, May 25
48 °FMostly cloudy.5 mph71%29.74 "Hg10 mi
2:54 am48 °FOvercast.3 mph74%29.74 "Hg10 mi
1:54 am49 °FMostly cloudy.7 mph71%29.75 "Hg10 mi
12:54 am49 °FMostly cloudy.8 mph71%29.76 "Hg10 mi
12:42 am49 °FMostly cloudy.7 mph69%29.76 "Hg10 mi
11:54 pm
Fri, May 24
49 °FOvercast.5 mph69%29.77 "Hg10 mi
10:54 pm50 °FOvercast.7 mph66%29.77 "Hg10 mi
9:54 pm50 °FOvercast.6 mph63%29.77 "Hg10 mi
8:54 pm51 °FOvercast.6 mph61%29.79 "Hg10 mi
7:54 pm52 °FOvercast.9 mph59%29.79 "Hg10 mi
6:54 pm53 °FOvercast.10 mph59%29.79 "Hg10 mi
5:54 pm54 °FSunny.13 mph59%29.80 "Hg10 mi
4:54 pm54 °FPartly sunny.9 mph57%29.82 "Hg10 mi
3:54 pm54 °FOvercast.12 mph57%29.83 "Hg10 mi
2:54 pm54 °FOvercast.15 mph59%29.85 "Hg10 mi
1:54 pm54 °FMostly cloudy.13 mph59%29.86 "Hg10 mi
12:54 pm56 °FMostly cloudy.13 mph60%29.87 "Hg10 mi
11:54 am54 °FMostly cloudy.12 mph64%29.87 "Hg10 mi
10:54 am52 °FMostly cloudy.9 mph69%29.87 "Hg10 mi
9:54 am51 °FOvercast.10 mph69%29.87 "Hg10 mi
8:54 am50 °FOvercast.9 mph71%29.88 "Hg10 mi
8:36 am50 °FMostly cloudy.9 mph71%29.87 "Hg10 mi
7:54 am49 °FOvercast.7 mph77%29.87 "Hg10 mi
6:54 am48 °FOvercast.6 mph77%29.87 "Hg10 mi
5:54 am47 °FMostly cloudy.5 mph80%29.88 "Hg9 mi
Weather by CustomWeather, © 2024

See weather overview